| time (UTC) | temp F | wind direction | speed MPH | gust MPH | rain 1hr in | rain 24hr in | rain mn in | humidity % | barometer mb |
| 20260506182329 | 79 | 185 | 1.0 | 3.0 | 0.00 | 0.00 | 0.00 | 92 | 1010.3 |
| 20260506181830 | 79 | 180 | 1.0 | 2.0 | 0.00 | 0.00 | 0.00 | 93 | 1010.4 |
| 20260506181330 | 79 | 180 | 0.0 | 4.0 | 0.00 | 0.00 | 0.00 | 93 | 1010.5 |
| 20260506180829 | 79 | 184 | 1.0 | 4.0 | 0.00 | 0.00 | 0.00 | 93 | 1010.4 |
| 20260506180330 | 78 | 161 | 1.0 | 4.0 | 0.00 | 0.00 | 0.00 | 93 | 1010.5 |
| 20260506175830 | 79 | 162 | 2.0 | 4.0 | 0.00 | 0.00 | 0.00 | 93 | 1010.6 |
| 20260506175330 | 79 | 188 | 1.0 | 4.0 | 0.00 | 0.00 | 0.00 | 92 | 1010.5 |
| 20260506174830 | 79 | 186 | 2.0 | 4.0 | 0.00 | 0.00 | 0.00 | 92 | 1010.7 |
| 20260506174330 | 79 | 182 | 2.0 | 4.0 | 0.00 | 0.00 | 0.00 | 92 | 1010.8 |
| 20260506173830 | 79 | 178 | 2.0 | 5.0 | 0.00 | 0.00 | 0.00 | 93 | 1010.9 |
| 20260506173330 | 79 | 166 | 2.0 | 8.0 | 0.00 | 0.00 | 0.00 | 93 | 1010.8 |
| 20260506172830 | 78 | 171 | 2.0 | 8.0 | 0.00 | 0.00 | 0.00 | 94 | 1010.7 |
| 20260506172330 | 78 | 155 | 0.0 | 3.0 | 0.00 | 0.00 | 0.00 | 95 | 1010.8 |
| 20260506171830 | 78 | 155 | 2.0 | 4.0 | 0.00 | 0.00 | 0.00 | 95 | 1010.8 |
| 20260506171329 | 78 | 141 | 1.0 | 4.0 | 0.00 | 0.00 | 0.00 | 95 | 1010.8 |
| 20260506170829 | 77 | 130 | 1.0 | 3.0 | 0.00 | 0.00 | 0.00 | 95 | 1010.9 |
| 20260506170330 | 77 | 150 | 1.0 | 2.0 | 0.00 | 0.00 | 0.00 | 96 | 1010.9 |
| 20260506165830 | 77 | 152 | 0.0 | 0.0 | 0.00 | 0.00 | 0.00 | 96 | 1010.8 |
| 20260506165330 | 76 | 152 | 0.0 | 0.0 | 0.00 | 0.00 | 0.00 | 96 | 1010.9 |
| 20260506164830 | 76 | 152 | 0.0 | 2.0 | 0.00 | 0.00 | 0.00 | 96 | 1011.1 |
| 20260506164330 | 76 | 152 | 0.0 | 2.0 | 0.00 | 0.00 | 0.00 | 96 | 1010.9 |
| 20260506163830 | 76 | 128 | 0.0 | 2.0 | 0.00 | 0.00 | 0.00 | 96 | 1011.1 |
| 20260506163330 | 76 | 128 | 0.0 | 2.0 | 0.00 | 0.00 | 0.00 | 96 | 1011.0 |
| 20260506162830 | 76 | 128 | 1.0 | 2.0 | 0.00 | 0.00 | 0.00 | 96 | 1011.2 |
| 20260506162330 | 76 | 128 | 1.0 | 2.0 | 0.00 | 0.00 | 0.00 | 96 | 1011.2 |
| 20260506161830 | 76 | 118 | 1.0 | 3.0 | 0.00 | 0.00 | 0.00 | 96 | 1011.2 |
| 20260506161330 | 76 | 175 | 1.0 | 4.0 | 0.00 | 0.00 | 0.00 | 96 | 1011.1 |
| 20260506160830 | 76 | 132 | 1.0 | 4.0 | 0.00 | 0.00 | 0.00 | 96 | 1011.1 |
| 20260506160329 | 76 | 178 | 1.0 | 4.0 | 0.00 | 0.00 | 0.00 | 96 | 1011.0 |
| 20260506155831 | 76 | 158 | 2.0 | 4.0 | 0.00 | 0.00 | 0.00 | 96 | 1011.0 |
| 20260506155330 | 76 | 159 | 2.0 | 4.0 | 0.00 | 0.00 | 0.00 | 96 | 1011.0 |
| 20260506154830 | 76 | 205 | 3.0 | 4.0 | 0.00 | 0.00 | 0.00 | 96 | 1011.0 |
| 20260506154550 | 76 | 165 | 1.0 | 4.0 | 0.00 | 0.00 | 0.00 | 96 | 1011.0 |
| 20260506153826 | 76 | 165 | 1.0 | 4.0 | 0.00 | 0.00 | 0.00 | 96 | 1011.0 |
| 20260506153319 | 76 | 165 | 2.0 | 4.0 | 0.00 | 0.00 | 0.00 | 96 | 1010.8 |
| 20260506152820 | 76 | 163 | 0.0 | 2.0 | 0.00 | 0.00 | 0.00 | 96 | 1010.7 |
| 20260506152539 | 75 | 163 | 0.0 | 2.0 | 0.00 | 0.00 | 0.00 | 96 | 1010.7 |
| 20260506152257 | 75 | 163 | 0.0 | 2.0 | 0.00 | 0.00 | 0.00 | 96 | 1010.7 |
| 20260506151305 | 75 | 163 | 1.0 | 3.0 | 0.00 | 0.00 | 0.00 | 96 | 1010.8 |
| 20260506150804 | 75 | 142 | 1.0 | 3.0 | 0.00 | 0.00 | 0.00 | 95 | 1010.9 |
| 20260506150305 | 75 | 154 | 1.0 | 3.0 | 0.00 | 0.00 | 0.00 | 95 | 1010.9 |
| 20260506145803 | 75 | 154 | 1.0 | 3.0 | 0.00 | 0.00 | 0.00 | 95 | 1011.0 |
| 20260506145305 | 75 | 153 | 0.0 | 4.0 | 0.00 | 0.00 | 0.00 | 95 | 1010.9 |
| 20260506144802 | 76 | 109 | 1.0 | 4.0 | 0.00 | 0.00 | 0.00 | 95 | 1010.9 |
| 20260506144302 | 76 | 190 | 2.0 | 4.0 | 0.00 | 0.00 | 0.00 | 95 | 1010.8 |
| 20260506144022 | 76 | 172 | 2.0 | 4.0 | 0.00 | 0.00 | 0.00 | 95 | 1010.8 |
| 20260506143302 | 76 | 160 | 2.0 | 3.0 | 0.00 | 0.00 | 0.00 | 95 | 1010.8 |
| 20260506142802 | 76 | 158 | 1.0 | 4.0 | 0.00 | 0.00 | 0.00 | 95 | 1010.8 |
| 20260506142305 | 76 | 153 | 2.0 | 4.0 | 0.00 | 0.00 | 0.00 | 95 | 1010.7 |
| 20260506141801 | 75 | 165 | 2.0 | 4.0 | 0.00 | 0.00 | 0.00 | 95 | 1010.8 |
| 20260506141301 | 76 | 169 | 2.0 | 4.0 | 0.00 | 0.00 | 0.00 | 95 | 1010.7 |
| 20260506140803 | 75 | 167 | 1.0 | 4.0 | 0.00 | 0.00 | 0.00 | 95 | 1010.8 |
| 20260506140520 | 75 | 167 | 2.0 | 4.0 | 0.00 | 0.00 | 0.00 | 95 | 1010.9 |
| 20260506135801 | 75 | 130 | 1.0 | 4.0 | 0.00 | 0.00 | 0.00 | 95 | 1010.8 |
| 20260506135306 | 75 | 124 | 2.0 | 4.0 | 0.00 | 0.00 | 0.00 | 95 | 1010.8 |
| 20260506134804 | 75 | 209 | 0.0 | 0.0 | 0.00 | 0.00 | 0.00 | 95 | 1010.7 |
| 20260506134526 | 75 | 209 | 0.0 | 0.0 | 0.00 | 0.00 | 0.00 | 95 | 1010.7 |
| 20260506133803 | 75 | 209 | 0.0 | 4.0 | 0.00 | 0.00 | 0.00 | 95 | 1010.6 |
| 20260506133303 | 75 | 209 | 0.0 | 5.0 | 0.00 | 0.00 | 0.00 | 95 | 1010.5 |
| 20260506132803 | 75 | 160 | 3.0 | 5.0 | 0.00 | 0.00 | 0.00 | 96 | 1010.4 |
| 20260506132307 | 75 | 169 | 1.0 | 5.0 | 0.00 | 0.00 | 0.00 | 96 | 1010.5 |
| 20260506131804 | 75 | 169 | 2.0 | 5.0 | 0.00 | 0.00 | 0.00 | 96 | 1010.6 |
| 20260506131303 | 75 | 175 | 1.0 | 5.0 | 0.00 | 0.00 | 0.00 | 96 | 1010.5 |
| 20260506131025 | 74 | 177 | 2.0 | 5.0 | 0.00 | 0.00 | 0.00 | 96 | 1010.4 |
| 20260506130735 | 74 | 175 | 2.0 | 4.0 | 0.00 | 0.00 | 0.00 | 96 | 1010.5 |
| 20260506125742 | 74 | 189 | 2.0 | 5.0 | 0.00 | 0.00 | 0.00 | 96 | 1010.3 |
| 20260506125232 | 74 | 175 | 2.0 | 5.0 | 0.00 | 0.00 | 0.00 | 97 | 1010.3 |
| 20260506124731 | 74 | 185 | 3.0 | 5.0 | 0.00 | 0.00 | 0.00 | 97 | 1010.2 |
| 20260506124232 | 74 | 178 | 2.0 | 5.0 | 0.00 | 0.00 | 0.00 | 97 | 1010.0 |
| 20260506123731 | 73 | 169 | 1.0 | 5.0 | 0.00 | 0.00 | 0.00 | 97 | 1010.0 |
| 20260506123232 | 73 | 136 | 2.0 | 5.0 | 0.00 | 0.00 | 0.00 | 97 | 1009.9 |
| 20260506122731 | 73 | 174 | 2.0 | 5.0 | 0.00 | 0.00 | 0.00 | 97 | 1009.9 |
| 20260506122231 | 73 | 195 | 1.0 | 4.0 | 0.00 | 0.00 | 0.00 | 97 | 1009.8 |
| 20260506121952 | 73 | 175 | 2.0 | 3.0 | 0.00 | 0.00 | 0.00 | 97 | 1009.8 |
| 20260506121231 | 73 | 175 | 2.0 | 3.0 | 0.00 | 0.00 | 0.00 | 97 | 1009.8 |
| 20260506120731 | 73 | 174 | 2.0 | 3.0 | 0.00 | 0.00 | 0.00 | 97 | 1009.8 |
| 20260506120230 | 73 | 178 | 1.0 | 3.0 | 0.00 | 0.00 | 0.00 | 97 | 1009.8 |
| 20260506115731 | 73 | 178 | 0.0 | 3.0 | 0.00 | 0.00 | 0.00 | 97 | 1009.6 |
| 20260506115447 | 73 | 178 | 1.0 | 2.0 | 0.00 | 0.00 | 0.00 | 97 | 1009.6 |
| 20260506114954 | 73 | 179 | 1.0 | 2.0 | 0.00 | 0.00 | 0.00 | 97 | 1009.6 |
| 20260506114717 | 73 | 179 | 2.0 | 2.0 | 0.00 | 0.00 | 0.00 | 97 | 1009.5 |
| 20260506113729 | 73 | 182 | 0.0 | 3.0 | 0.00 | 0.00 | 0.00 | 97 | 1009.4 |
| 20260506113448 | 72 | 183 | 1.0 | 3.0 | 0.00 | 0.00 | 0.00 | 97 | 1009.3 |
| 20260506113432 | 72 | 182 | 1.0 | 3.0 | 0.00 | 0.00 | 0.00 | 97 | 1009.4 |
| 20260506112229 | 72 | 184 | 1.0 | 2.0 | 0.00 | 0.00 | 0.00 | 97 | 1009.2 |
| 20260506111947 | 72 | 184 | 2.0 | 2.0 | 0.00 | 0.00 | 0.00 | 97 | 1009.2 |
| 20260506111229 | 72 | 184 | 2.0 | 4.0 | 0.00 | 0.00 | 0.00 | 97 | 1009.1 |
| 20260506110729 | 72 | 184 | 1.0 | 4.0 | 0.00 | 0.00 | 0.00 | 97 | 1009.0 |
| 20260506110228 | 72 | 161 | 0.0 | 5.0 | 0.00 | 0.00 | 0.00 | 97 | 1008.9 |
| 20260506105728 | 72 | 170 | 2.0 | 5.0 | 0.00 | 0.00 | 0.00 | 96 | 1009.0 |
| 20260506105228 | 72 | 178 | 0.0 | 4.0 | 0.00 | 0.00 | 0.00 | 96 | 1008.9 |
| 20260506104728 | 72 | 178 | 1.0 | 5.0 | 0.00 | 0.00 | 0.00 | 96 | 1008.9 |
| 20260506104229 | 72 | 169 | 3.0 | 5.0 | 0.00 | 0.00 | 0.00 | 96 | 1008.9 |
| 20260506103949 | 72 | 165 | 2.0 | 5.0 | 0.00 | 0.00 | 0.00 | 96 | 1008.8 |
| 20260506103230 | 72 | 167 | 2.0 | 5.0 | 0.00 | 0.00 | 0.00 | 96 | 1008.7 |
| 20260506102729 | 72 | 184 | 0.0 | 5.0 | 0.00 | 0.00 | 0.00 | 96 | 1008.7 |
| 20260506102229 | 72 | 186 | 2.0 | 5.0 | 0.00 | 0.00 | 0.00 | 96 | 1008.7 |
| 20260506101729 | 72 | 161 | 3.0 | 5.0 | 0.00 | 0.00 | 0.00 | 96 | 1008.8 |
| 20260506101228 | 72 | 198 | 1.0 | 3.0 | 0.00 | 0.00 | 0.00 | 96 | 1008.7 |
| 20260506100729 | 72 | 213 | 0.0 | 0.0 | 0.00 | 0.00 | 0.00 | 96 | 1008.8 |
| 20260506100229 | 72 | 213 | 0.0 | 0.0 | 0.00 | 0.00 | 0.00 | 96 | 1008.8 |
| 20260506095729 | 72 | 213 | 0.0 | 0.0 | 0.00 | 0.00 | 0.00 | 96 | 1008.9 |
| 20260506095229 | 72 | 213 | 0.0 | 0.0 | 0.00 | 0.00 | 0.00 | 96 | 1009.0 |
| 20260506094728 | 72 | 213 | 0.0 | 0.0 | 0.00 | 0.00 | 0.00 | 96 | 1009.0 |
| 20260506094231 | 72 | 213 | 0.0 | 0.0 | 0.00 | 0.00 | 0.00 | 95 | 1008.9 |
| 20260506094209 | 72 | 213 | 0.0 | 0.0 | 0.00 | 0.00 | 0.00 | 95 | 1009.0 |
| 20260506093230 | 72 | 213 | 0.0 | 0.0 | 0.00 | 0.00 | 0.00 | 95 | 1009.1 |
| 20260506093213 | 72 | 213 | 0.0 | 1.0 | 0.00 | 0.00 | 0.00 | 95 | 1009.2 |
| 20260506092230 | 72 | 213 | 0.0 | 2.0 | 0.00 | 0.00 | 0.00 | 95 | 1009.1 |
| 20260506091730 | 71 | 213 | 1.0 | 2.0 | 0.00 | 0.00 | 0.00 | 95 | 1009.2 |
| 20260506091230 | 71 | 213 | 0.0 | 1.0 | 0.00 | 0.00 | 0.00 | 94 | 1009.1 |
| 20260506090731 | 71 | 213 | 0.0 | 0.0 | 0.00 | 0.00 | 0.00 | 94 | 1009.2 |
| 20260506090231 | 71 | 213 | 0.0 | 0.0 | 0.00 | 0.00 | 0.00 | 94 | 1009.2 |
| 20260506085730 | 72 | 213 | 0.0 | 0.0 | 0.00 | 0.00 | 0.00 | 94 | 1009.0 |
| 20260506085230 | 72 | 213 | 0.0 | 1.0 | 0.00 | 0.00 | 0.00 | 93 | 1009.1 |
| 20260506084729 | 72 | 213 | 0.0 | 1.0 | 0.00 | 0.00 | 0.00 | 94 | 1009.2 |
| 20260506084230 | 72 | 213 | 0.0 | 3.0 | 0.00 | 0.00 | 0.00 | 94 | 1009.2 |
| 20260506083954 | 72 | 213 | 0.0 | 3.0 | 0.00 | 0.00 | 0.00 | 94 | 1009.1 |
| 20260506083230 | 73 | 181 | 1.0 | 3.0 | 0.00 | 0.00 | 0.00 | 94 | 1009.3 |
| 20260506082731 | 73 | 236 | 1.0 | 4.0 | 0.00 | 0.00 | 0.00 | 94 | 1009.2 |
| 20260506082230 | 73 | 236 | 2.0 | 4.0 | 0.00 | 0.00 | 0.00 | 94 | 1009.2 |
| 20260506081730 | 73 | 187 | 2.0 | 4.0 | 0.00 | 0.00 | 0.00 | 94 | 1009.2 |
| 20260506081230 | 73 | 180 | 2.0 | 4.0 | 0.00 | 0.00 | 0.00 | 93 | 1008.9 |
| 20260506080730 | 73 | 172 | 2.0 | 5.0 | 0.00 | 0.00 | 0.00 | 94 | 1008.9 |
| 20260506080230 | 73 | 178 | 2.0 | 5.0 | 0.00 | 0.00 | 0.00 | 94 | 1009.0 |
| 20260506073230 | 73 | 178 | 2.0 | 5.0 | 0.00 | 0.00 | 0.00 | 94 | 1009.3 |
| 20260506072730 | 73 | 182 | 2.0 | 7.0 | 0.00 | 0.00 | 0.00 | 94 | 1009.4 |
| 20260506072229 | 73 | 177 | 3.0 | 7.0 | 0.00 | 0.00 | 0.00 | 94 | 1009.4 |
| 20260506071730 | 73 | 207 | 3.0 | 5.0 | 0.00 | 0.00 | 0.00 | 95 | 1009.3 |
| 20260506071230 | 73 | 174 | 2.0 | 5.0 | 0.00 | 0.00 | 0.00 | 95 | 1009.2 |
| 20260506070730 | 72 | 174 | 2.0 | 5.0 | 0.00 | 0.00 | 0.00 | 95 | 1009.2 |
| 20260506070230 | 72 | 176 | 3.0 | 5.0 | 0.00 | 0.00 | 0.00 | 95 | 1009.2 |
| 20260506062229 | 71 | 155 | 2.0 | 3.0 | 0.00 | 0.00 | 0.00 | 95 | 1009.4 |
| 20260506061729 | 71 | 148 | 1.0 | 3.0 | 0.00 | 0.00 | 0.00 | 95 | 1009.4 |
| 20260506061229 | 72 | 148 | 2.0 | 4.0 | 0.00 | 0.00 | 0.00 | 95 | 1009.4 |
| 20260506060729 | 72 | 148 | 1.0 | 4.0 | 0.00 | 0.00 | 0.00 | 95 | 1009.4 |
| 20260506060228 | 72 | 157 | 2.0 | 3.0 | 0.00 | 0.00 | 0.00 | 95 | 1009.4 |
| 20260506051232 | 73 | 182 | 2.0 | 4.0 | 0.00 | 0.00 | 0.00 | 93 | 1009.7 |
| 20260506050731 | 73 | 182 | 2.0 | 4.0 | 0.00 | 0.00 | 0.00 | 93 | 1009.7 |
| 20260506050231 | 73 | 155 | 1.0 | 3.0 | 0.00 | 0.00 | 0.00 | 93 | 1009.8 |
| 20260506044919 | 73 | 175 | 2.0 | 5.0 | 0.00 | 0.00 | 0.00 | 93 | 1009.8 |
| 20260506044908 | 73 | 173 | 2.0 | 4.0 | 0.00 | 0.00 | 0.00 | 93 | 1009.8 |
| 20260506043934 | 73 | 176 | 2.0 | 5.0 | 0.00 | 0.00 | 0.00 | 93 | 1009.7 |
| 20260506043204 | 73 | 169 | 3.0 | 5.0 | 0.00 | 0.00 | 0.00 | 92 | 1009.7 |
| 20260506042703 | 73 | 178 | 2.0 | 6.0 | 0.00 | 0.00 | 0.00 | 92 | 1009.6 |
| 20260506042204 | 73 | 239 | 3.0 | 6.0 | 0.00 | 0.00 | 0.00 | 92 | 1009.7 |
| 20260506041703 | 73 | 175 | 3.0 | 5.0 | 0.00 | 0.00 | 0.00 | 92 | 1009.7 |
| 20260506041427 | 74 | 169 | 3.0 | 5.0 | 0.00 | 0.00 | 0.00 | 92 | 1009.6 |
| 20260506040704 | 74 | 146 | 2.0 | 5.0 | 0.00 | 0.00 | 0.00 | 91 | 1009.7 |
| 20260506040204 | 74 | 176 | 2.0 | 5.0 | 0.00 | 0.00 | 0.00 | 91 | 1009.7 |
| 20260506035703 | 74 | 163 | 3.0 | 5.0 | 0.00 | 0.00 | 0.00 | 91 | 1009.6 |
| 20260506035154 | 74 | 182 | 2.0 | 4.0 | 0.00 | 0.00 | 0.00 | 91 | 1009.6 |
| 20260506034648 | 74 | 168 | 1.0 | 4.0 | 0.00 | 0.00 | 0.00 | 91 | 1009.6 |
| 20260506034144 | 74 | 168 | 1.0 | 4.0 | 0.00 | 0.00 | 0.00 | 90 | 1009.6 |
| 20260506033639 | 74 | 166 | 2.0 | 5.0 | 0.00 | 0.00 | 0.00 | 90 | 1009.6 |
| 20260506033135 | 74 | 166 | 2.0 | 5.0 | 0.00 | 0.00 | 0.00 | 90 | 1009.4 |
| 20260506032632 | 75 | 187 | 2.0 | 5.0 | 0.00 | 0.00 | 0.00 | 89 | 1009.2 |
| 20260506032131 | 75 | 190 | 2.0 | 7.0 | 0.00 | 0.00 | 0.00 | 89 | 1009.3 |
| 20260506031632 | 75 | 171 | 4.0 | 7.0 | 0.00 | 0.00 | 0.00 | 89 | 1009.3 |
| 20260506031131 | 75 | 178 | 3.0 | 5.0 | 0.00 | 0.00 | 0.00 | 88 | 1009.2 |
| 20260506030630 | 75 | 178 | 2.0 | 10.0 | 0.00 | 0.00 | 0.00 | 88 | 1009.1 |
| 20260506030357 | 76 | 171 | 3.0 | 10.0 | 0.00 | 0.00 | 0.00 | 88 | 1009.1 |
| 20260506025631 | 76 | 174 | 4.0 | 8.0 | 0.00 | 0.00 | 0.00 | 88 | 1009.0 |
| 20260506025131 | 76 | 157 | 3.0 | 6.0 | 0.00 | 0.00 | 0.00 | 87 | 1008.9 |
| 20260506024631 | 76 | 165 | 3.0 | 8.0 | 0.00 | 0.00 | 0.00 | 87 | 1008.9 |
| 20260506024353 | 76 | 171 | 4.0 | 9.0 | 0.00 | 0.00 | 0.00 | 87 | 1008.8 |
| 20260506023632 | 76 | 192 | 6.0 | 9.0 | 0.00 | 0.00 | 0.00 | 87 | 1008.9 |
| 20260506023131 | 76 | 183 | 3.0 | 6.0 | 0.00 | 0.00 | 0.00 | 87 | 1008.7 |
| 20260506022628 | 76 | 163 | 3.0 | 6.0 | 0.00 | 0.00 | 0.00 | 87 | 1008.7 |
| 20260506022129 | 76 | 182 | 4.0 | 7.0 | 0.00 | 0.00 | 0.00 | 87 | 1008.7 |
| 20260506021629 | 76 | 169 | 4.0 | 7.0 | 0.00 | 0.00 | 0.00 | 87 | 1008.6 |
| 20260506021129 | 76 | 153 | 4.0 | 7.0 | 0.00 | 0.00 | 0.00 | 87 | 1008.5 |
| 20260506020629 | 76 | 193 | 4.0 | 11.0 | 0.00 | 0.00 | 0.00 | 87 | 1008.4 |
| 20260506020129 | 76 | 181 | 4.0 | 11.0 | 0.00 | 0.00 | 0.00 | 87 | 1008.3 |
| 20260506015629 | 77 | 182 | 4.0 | 9.0 | 0.00 | 0.00 | 0.00 | 87 | 1008.3 |
| 20260506015400 | 77 | 155 | 4.0 | 11.0 | 0.00 | 0.00 | 0.00 | 87 | 1008.2 |
| 20260506014848 | 77 | 207 | 6.0 | 11.0 | 0.00 | 0.00 | 0.00 | 87 | 1008.3 |
| 20260506014129 | 77 | 158 | 4.0 | 10.0 | 0.00 | 0.00 | 0.00 | 87 | 1008.2 |
| 20260506013629 | 77 | 163 | 3.0 | 7.0 | 0.00 | 0.00 | 0.00 | 87 | 1008.2 |
| 20260506013129 | 77 | 178 | 3.0 | 5.0 | 0.00 | 0.00 | 0.00 | 87 | 1008.2 |
| 20260506012852 | 77 | 175 | 2.0 | 6.0 | 0.00 | 0.00 | 0.00 | 87 | 1008.3 |
| 20260506012128 | 77 | 158 | 4.0 | 6.0 | 0.00 | 0.00 | 0.00 | 86 | 1008.2 |
| 20260506011629 | 77 | 182 | 3.0 | 5.0 | 0.00 | 0.00 | 0.00 | 86 | 1008.0 |
| 20260506011348 | 77 | 168 | 3.0 | 5.0 | 0.00 | 0.00 | 0.00 | 86 | 1007.9 |
| 20260506010629 | 77 | 170 | 3.0 | 8.0 | 0.00 | 0.00 | 0.00 | 86 | 1008.0 |
| 20260506010129 | 77 | 186 | 3.0 | 8.0 | 0.00 | 0.00 | 0.00 | 86 | 1007.7 |
| 20260506005629 | 78 | 188 | 2.0 | 5.0 | 0.00 | 0.00 | 0.00 | 86 | 1007.7 |
| 20260506005129 | 78 | 189 | 2.0 | 7.0 | 0.00 | 0.00 | 0.00 | 86 | 1007.6 |
| 20260506004629 | 78 | 180 | 3.0 | 8.0 | 0.00 | 0.00 | 0.00 | 86 | 1007.6 |
| 20260506004128 | 78 | 180 | 5.0 | 8.0 | 0.00 | 0.00 | 0.00 | 85 | 1007.5 |
| 20260506003629 | 78 | 221 | 2.0 | 8.0 | 0.00 | 0.00 | 0.00 | 85 | 1007.6 |
| 20260506003129 | 78 | 171 | 4.0 | 8.0 | 0.00 | 0.00 | 0.00 | 85 | 1007.6 |
| 20260506002629 | 78 | 171 | 4.0 | 7.0 | 0.00 | 0.00 | 0.00 | 85 | 1007.6 |
| 20260506002129 | 78 | 172 | 4.0 | 7.0 | 0.00 | 0.00 | 0.00 | 85 | 1007.7 |
| 20260506001629 | 78 | 187 | 4.0 | 8.0 | 0.00 | 0.00 | 0.00 | 85 | 1007.6 |
| 20260506001129 | 78 | 161 | 4.0 | 8.0 | 0.00 | 0.00 | 0.00 | 85 | 1007.5 |
| 20260506000629 | 78 | 176 | 4.0 | 8.0 | 0.00 | 0.00 | 0.00 | 85 | 1007.4 |
| 20260506000129 | 79 | 178 | 4.0 | 6.0 | 0.00 | 0.00 | 0.00 | 85 | 1007.6 |
| 20260505235629 | 79 | 182 | 3.0 | 5.0 | 0.00 | 0.00 | 0.00 | 86 | 1007.5 |
| 20260505235129 | 79 | 178 | 3.0 | 5.0 | 0.00 | 0.00 | 0.00 | 85 | 1007.6 |
| 20260505234629 | 79 | 171 | 3.0 | 6.0 | 0.00 | 0.00 | 0.00 | 85 | 1007.6 |
| 20260505234613 | 79 | 150 | 3.0 | 8.0 | 0.00 | 0.00 | 0.00 | 85 | 1007.7 |
| 20260505233629 | 79 | 179 | 4.0 | 8.0 | 0.00 | 0.00 | 0.00 | 85 | 1007.7 |
| 20260505233129 | 79 | 174 | 3.0 | 6.0 | 0.00 | 0.00 | 0.00 | 85 | 1007.7 |
| 20260505232628 | 79 | 183 | 3.0 | 6.0 | 0.00 | 0.00 | 0.00 | 85 | 1007.7 |
| 20260505232129 | 79 | 165 | 4.0 | 6.0 | 0.00 | 0.00 | 0.00 | 85 | 1007.6 |
| 20260505231628 | 79 | 182 | 4.0 | 6.0 | 0.00 | 0.00 | 0.00 | 85 | 1007.7 |
| 20260505231131 | 79 | 163 | 4.0 | 6.0 | 0.00 | 0.00 | 0.00 | 86 | 1007.6 |
| 20260505230632 | 79 | 173 | 3.0 | 6.0 | 0.00 | 0.00 | 0.00 | 86 | 1007.6 |
| 20260505230131 | 79 | 171 | 3.0 | 7.0 | 0.00 | 0.00 | 0.00 | 85 | 1007.6 |
| 20260505225631 | 79 | 182 | 5.0 | 7.0 | 0.00 | 0.00 | 0.00 | 85 | 1007.6 |
| 20260505225132 | 79 | 188 | 4.0 | 7.0 | 0.00 | 0.00 | 0.00 | 85 | 1007.6 |
| 20260505224854 | 79 | 183 | 3.0 | 7.0 | 0.00 | 0.00 | 0.00 | 86 | 1007.6 |
| 20260505224131 | 79 | 172 | 3.0 | 7.0 | 0.00 | 0.00 | 0.00 | 85 | 1007.7 |
| 20260505223631 | 79 | 173 | 3.0 | 7.0 | 0.00 | 0.00 | 0.00 | 86 | 1007.4 |
| 20260505223131 | 79 | 175 | 4.0 | 6.0 | 0.00 | 0.00 | 0.00 | 86 | 1007.7 |
| 20260505222630 | 79 | 173 | 2.0 | 6.0 | 0.00 | 0.00 | 0.00 | 86 | 1007.7 |
| 20260505222131 | 79 | 183 | 2.0 | 5.0 | 0.00 | 0.00 | 0.00 | 86 | 1007.6 |
| 20260505221627 | 79 | 172 | 2.0 | 5.0 | 0.00 | 0.00 | 0.00 | 86 | 1007.7 |
| 20260505221120 | 78 | 176 | 3.0 | 5.0 | 0.00 | 0.00 | 0.00 | 86 | 1007.8 |
| 20260505220621 | 78 | 172 | 2.0 | 6.0 | 0.00 | 0.00 | 0.00 | 87 | 1007.7 |
| 20260505220121 | 78 | 159 | 3.0 | 6.0 | 0.00 | 0.00 | 0.00 | 86 | 1007.9 |
| 20260505215616 | 78 | 183 | 3.0 | 5.0 | 0.00 | 0.00 | 0.00 | 86 | 1007.9 |
| 20260505215116 | 78 | 182 | 3.0 | 4.0 | 0.00 | 0.00 | 0.00 | 87 | 1007.9 |
| 20260505214611 | 78 | 176 | 2.0 | 4.0 | 0.00 | 0.00 | 0.00 | 86 | 1008.1 |
| 20260505214111 | 78 | 191 | 3.0 | 4.0 | 0.00 | 0.00 | 0.00 | 86 | 1008.1 |
| 20260505213607 | 78 | 182 | 1.0 | 6.0 | 0.00 | 0.00 | 0.00 | 87 | 1008.1 |
| 20260505213107 | 78 | 185 | 2.0 | 6.0 | 0.00 | 0.00 | 0.00 | 86 | 1008.1 |
| 20260505212607 | 78 | 174 | 2.0 | 6.0 | 0.00 | 0.00 | 0.00 | 85 | 1008.1 |
| 20260505212323 | 79 | 178 | 3.0 | 7.0 | 0.00 | 0.00 | 0.00 | 86 | 1007.9 |
| 20260505211603 | 79 | 180 | 3.0 | 7.0 | 0.00 | 0.00 | 0.00 | 85 | 1008.0 |
| 20260505211101 | 79 | 179 | 3.0 | 6.0 | 0.00 | 0.00 | 0.00 | 85 | 1008.1 |
| 20260505210601 | 79 | 184 | 2.0 | 5.0 | 0.00 | 0.00 | 0.00 | 85 | 1008.2 |
| 20260505205822 | 79 | 165 | 2.0 | 5.0 | 0.00 | 0.00 | 0.00 | 84 | 1008.1 |
| 20260505205101 | 79 | 196 | 2.0 | 5.0 | 0.00 | 0.00 | 0.00 | 84 | 1008.2 |
| 20260505204601 | 79 | 169 | 2.0 | 5.0 | 0.00 | 0.00 | 0.00 | 85 | 1008.1 |
| 20260505204320 | 79 | 175 | 3.0 | 6.0 | 0.00 | 0.00 | 0.00 | 85 | 1008.2 |
| 20260505203601 | 78 | 179 | 3.0 | 6.0 | 0.00 | 0.00 | 0.00 | 84 | 1008.3 |
| 20260505203100 | 78 | 171 | 3.0 | 7.0 | 0.00 | 0.00 | 0.00 | 84 | 1008.4 |
| 20260505202600 | 78 | 178 | 3.0 | 7.0 | 0.00 | 0.00 | 0.00 | 84 | 1008.4 |
| 20260505202101 | 78 | 192 | 3.0 | 6.0 | 0.00 | 0.00 | 0.00 | 84 | 1008.3 |
| 20260505201601 | 78 | 159 | 3.0 | 6.0 | 0.00 | 0.00 | 0.00 | 84 | 1008.4 |
| 20260505201101 | 78 | 184 | 3.0 | 6.0 | 0.00 | 0.00 | 0.00 | 84 | 1008.5 |
| 20260505200604 | 78 | 176 | 2.0 | 6.0 | 0.00 | 0.00 | 0.00 | 83 | 1008.5 |
| 20260505200104 | 78 | 179 | 3.0 | 6.0 | 0.00 | 0.00 | 0.00 | 84 | 1008.5 |
| 20260505195828 | 78 | 188 | 3.0 | 6.0 | 0.00 | 0.00 | 0.00 | 83 | 1008.5 |
| 20260505195104 | 78 | 187 | 2.0 | 5.0 | 0.00 | 0.00 | 0.00 | 84 | 1008.6 |
| 20260505194603 | 78 | 161 | 3.0 | 6.0 | 0.00 | 0.00 | 0.00 | 83 | 1008.7 |
| 20260505194053 | 78 | 169 | 4.0 | 7.0 | 0.00 | 0.00 | 0.00 | 83 | 1008.8 |
| 20260505193815 | 78 | 170 | 3.0 | 7.0 | 0.00 | 0.00 | 0.00 | 83 | 1008.7 |
| 20260505193043 | 78 | 176 | 2.0 | 5.0 | 0.00 | 0.00 | 0.00 | 83 | 1008.7 |
| 20260505192536 | 78 | 194 | 2.0 | 6.0 | 0.00 | 0.00 | 0.00 | 83 | 1008.7 |
| 20260505192037 | 78 | 184 | 3.0 | 6.0 | 0.00 | 0.00 | 0.00 | 83 | 1008.6 |
| 20260505191532 | 78 | 166 | 3.0 | 7.0 | 0.00 | 0.00 | 0.00 | 83 | 1008.6 |
| 20260505191032 | 78 | 173 | 3.0 | 7.0 | 0.00 | 0.00 | 0.00 | 82 | 1008.7 |
| 20260505190531 | 78 | 216 | 4.0 | 7.0 | 0.00 | 0.00 | 0.00 | 82 | 1008.6 |
| 20260505190031 | 78 | 180 | 3.0 | 7.0 | 0.00 | 0.00 | 0.00 | 82 | 1008.8 |
| 20260505185800 | 78 | 185 | 4.0 | 7.0 | 0.00 | 0.00 | 0.00 | 82 | 1008.8 |
| 20260505185032 | 78 | 175 | 3.0 | 6.0 | 0.00 | 0.00 | 0.00 | 83 | 1008.8 |
| 20260505184531 | 78 | 155 | 3.0 | 6.0 | 0.00 | 0.00 | 0.00 | 83 | 1009.0 |
| 20260505184031 | 78 | 175 | 2.0 | 6.0 | 0.00 | 0.00 | 0.00 | 83 | 1009.1 |
| 20260505183531 | 78 | 146 | 2.0 | 6.0 | 0.00 | 0.00 | 0.00 | 82 | 1009.1 |
| 20260505183031 | 78 | 199 | 3.0 | 6.0 | 0.00 | 0.00 | 0.00 | 82 | 1009.2 |
| 20260505182758 | 78 | 170 | 4.0 | 6.0 | 0.00 | 0.00 | 0.00 | 82 | 1009.0 |